FW9483 Weather Reports


time (UTC)temp
C
wind
direction
speed
KPH
gust
KPH
rain 1hr
cm
rain 24hr
cm
rain mn
cm
humidity
%
barometer
mb
20260507000516 6 288 3.2 11.3 0.03 2.03 2.03 92 1009.4
20260506235516 7 48 3.2 9.7 0.03 2.03 2.03 91 1009.3
20260506234516 7 37 3.2 11.3 0.03 2.03 2.03 90 1009.2
20260506233516 7 167 3.2 12.9 0.05 2.03 2.03 90 1009.1
20260506232516 7 346 3.2 9.7 0.05 2.03 2.03 90 1008.8
20260506231516 7 200 3.2 6.4 0.05 2.03 2.03 91 1008.7
20260506230536 8 4 3.2 8.0 0.05 2.01 2.01 91 1008.3
20260506225516 -17 0.0 0.0 0.05 2.01 2.01
20260506224516 -17 128 3.2 3.2 0.05 2.01 2.01
20260506223616 9 189 3.2 14.5 0.05 1.98 1.98 91 1008.0
20260506222516 10 270 1.6 6.4 0.05 1.98 1.98 91 1008.0
20260506221516 10 262 1.6 4.8 0.05 1.98 1.98 91 1007.7
20260506220516 10 230 4.8 9.7 0.03 1.96 1.96 90 1007.4
20260506215516 11 245 4.8 17.7 0.03 1.96 1.96 90 1007.1
20260506214516 12 18 4.8 16.1 0.03 1.96 1.96 92 1006.7
20260506213536 13 234 4.8 16.1 0.00 1.93 1.93 92 1006.4
20260506212516 13 237 4.8 20.9 0.00 1.93 1.93 92 1006.5
20260506211516 13 236 3.2 12.9 0.00 1.93 1.93 92 1006.4
20260506210516 13 192 4.8 11.3 0.00 1.93 1.93 93 1006.2
20260506205516 13 192 3.2 9.7 0.03 1.93 1.93 93 1006.2
20260506204516 13 186 3.2 20.9 0.03 1.93 1.93 92 1006.3
20260506203516 13 228 4.8 16.1 0.03 1.93 1.93 92 1006.3
20260506202516 13 226 8.0 19.3 0.03 1.93 1.93 92 1006.2
20260506201516 13 195 4.8 9.7 0.03 1.93 1.93 92 1006.3
20260506200536 13 217 6.4 20.9 0.03 1.93 1.93 92 1006.5
20260506195516 13 222 6.4 14.5 0.00 1.91 1.91 92 1006.5
20260506194556 13 228 6.4 19.3 0.00 1.91 1.91 92 1006.5
20260506193516 13 207 6.4 12.9 0.03 1.91 1.91 92 1006.7
20260506192516 13 212 6.4 16.1 0.05 1.91 1.91 92 1006.8
20260506191516 13 201 6.4 24.1 0.05 1.91 1.91 92 1006.8
20260506190516 13 230 4.8 16.1 0.10 1.91 1.91 92 1006.9
20260506185516 13 224 6.4 19.3 0.18 1.91 1.91 93 1007.0
20260506184516 13 207 3.2 11.3 0.23 1.91 1.91 93 1007.0
20260506183516 13 185 3.2 17.7 0.28 1.88 1.88 93 1007.0
20260506182516 13 169 3.2 11.3 0.36 1.85 1.85 93 1007.0
20260506181516 13 166 3.2 9.7 0.41 1.85 1.85 93 1007.1
20260506180516 13 201 4.8 11.3 0.38 1.80 1.80 93 1007.2
20260506175536 13 184 3.2 6.4 0.33 1.73 1.73 93 1007.3
20260506174536 13 209 3.2 8.0 0.41 1.68 1.68 93 1007.3
20260506173516 13 195 4.8 12.9 0.41 1.60 1.60 92 1007.2
20260506172516 13 206 4.8 12.9 0.41 1.50 1.50 93 1007.3
20260506171516 13 211 6.4 16.1 0.43 1.45 1.45 93 1007.3
20260506170516 -17 177 8.0 8.0 0.46 1.42 1.42
20260506165536 13 196 3.2 9.7 0.48 1.40 1.40 93 1007.4
20260506164536 13 181 6.4 19.3 0.43 1.27 1.27 92 1007.3
20260506163516 13 152 6.4 17.7 0.41 1.19 1.19 92 1007.4
20260506162516 12 183 8.0 16.1 0.33 1.09 1.09 92 1007.5
20260506161516 12 176 4.8 19.3 0.30 1.02 1.02 92 1007.7
20260506160516 12 179 8.0 17.7 0.30 0.97 0.97 92 1007.9
20260506155516 12 194 4.8 16.1 0.30 0.91 0.91 92 1007.8
20260506154516 12 184 6.4 19.3 0.30 0.84 0.84 92 1007.9
20260506153516 12 182 4.8 14.5 0.33 0.79 0.79 92 1007.8
20260506152536 12 183 6.4 16.1 0.36 0.76 0.76 92 1007.9
20260506151516 12 176 3.2 14.5 0.33 0.71 0.71 91 1008.0
20260506150516 12 216 6.4 16.1 0.33 0.66 0.66 91 1008.1
20260506145516 12 181 6.4 12.9 0.33 0.61 0.61 91 1008.3
20260506144516 12 207 8.0 19.3 0.30 0.53 0.53 91 1008.5
20260506143516 12 194 4.8 16.1 0.30 0.46 0.46 91 1008.4
20260506142516 12 179 6.4 12.9 0.30 0.41 0.41 91 1008.6
20260506141516 13 193 6.4 20.9 0.30 0.38 0.38 91 1008.7
20260506140516 13 192 6.4 16.1 0.28 0.33 0.33 91 1008.9
20260506135536 13 178 6.4 17.7 0.23 0.28 0.28 91 1008.9
20260506134516 13 203 6.4 16.1 0.20 0.23 0.23 91 1008.9
20260506133536 13 203 4.8 12.9 0.13 0.15 0.15 90 1008.9
20260506132516 13 207 6.4 14.5 0.08 0.10 0.10 89 1008.9
20260506131516 13 192 6.4 19.3 0.05 0.08 0.08 89 1008.7
20260506130517 13 195 6.4 20.9 0.03 0.05 0.05 88 1008.6
20260506125516 13 189 6.4 20.9 0.05 0.05 0.05 87 1008.6
20260506124536 13 207 6.4 17.7 0.03 0.03 0.03 87 1008.5
20260506123516 13 194 3.2 12.9 0.03 0.03 0.03 87 1008.5
20260506122516 13 188 3.2 11.3 0.03 0.03 0.03 87 1008.7
20260506121516 13 190 3.2 9.7 0.03 0.03 0.03 86 1008.8
20260506120536 13 186 1.6 9.7 0.03 0.03 0.03 84 1008.9
20260506115516 13 213 3.2 11.3 0.00 0.00 0.00 81 1009.0
20260506114516 14 205 4.8 11.3 0.00 0.00 0.00 77 1009.1
20260506113516 14 197 6.4 16.1 0.00 0.00 0.00 76 1009.1
20260506112516 14 186 3.2 12.9 0.00 0.00 0.00 75 1009.1
20260506111516 14 231 6.4 17.7 0.00 0.00 0.00 74 1008.8
20260506110516 14 209 6.4 16.1 0.00 0.00 0.00 74 1008.7
20260506105516 14 211 1.6 11.3 0.00 0.00 0.00 73 1008.6
20260506104516 15 207 3.2 9.7 0.00 0.00 0.00 72 1008.5
20260506103516 15 188 4.8 9.7 0.00 0.00 0.00 71 1008.5
20260506102516 15 203 3.2 20.9 0.00 0.00 0.00 70 1008.6
20260506101516 15 221 6.4 17.7 0.00 0.00 0.00 69 1008.7
20260506100516 15 227 4.8 20.9 0.00 0.00 0.00 69 1008.5
20260506095516 15 213 3.2 9.7 0.00 0.00 0.00 69 1008.4
20260506094516 15 203 4.8 17.7 0.00 0.00 0.00 68 1008.4
20260506093537 15 210 4.8 19.3 0.00 0.00 0.00 67 1008.6
20260506092516 15 179 6.4 22.5 0.00 0.00 0.00 67 1008.6
20260506091516 15 251 8.0 20.9 0.00 0.00 0.00 67 1008.7
20260506090556 15 226 6.4 17.7 0.00 0.00 0.00 67 1008.7
20260506085516 15 222 3.2 12.9 0.00 0.00 0.00 66 1008.6
20260506084516 15 168 3.2 11.3 0.00 0.00 0.00 66 1008.6
20260506083516 15 219 4.8 16.1 0.00 0.00 0.00 65 1008.7
20260506082537 15 230 8.0 22.5 0.00 0.00 0.00 65 1008.8
20260506081516 15 227 6.4 20.9 0.00 0.00 0.00 66 1008.9
20260506080516 15 208 6.4 19.3 0.00 0.00 0.00 66 1008.9
20260506073516 15 207 3.2 11.3 0.00 0.00 0.00 66 1009.1
20260506072516 15 181 4.8 12.9 0.00 0.00 0.00 66 1009.1
20260506071516 15 192 4.8 16.1 0.00 0.00 0.00 66 1009.3
20260506070516 15 190 4.8 14.5 0.00 0.00 0.00 66 1009.1
20260506062516 16 169 3.2 11.3 0.00 0.00 0.00 64 1009.6
20260506061516 16 210 4.8 12.9 0.00 0.00 0.00 63 1009.7
20260506060516 16 204 3.2 9.7 0.00 0.00 0.00 63 1009.6
20260506050536 16 174 4.8 24.1 0.00 0.00 0.00 61 1009.8
20260506044516 16 208 6.4 22.5 0.00 0.00 0.00 61 1010.0
20260506043516 16 220 3.2 14.5 0.00 0.00 0.00 62 1010.0
20260506042516 16 214 3.2 12.9 0.00 0.00 0.00 62 1010.1
20260506041537 16 194 4.8 17.7 0.00 0.00 0.00 62 1010.0
20260506040516 16 194 4.8 16.1 0.00 0.00 0.00 62 1010.1
20260506035516 16 187 4.8 17.7 0.00 0.00 0.00 61 1010.2
20260506034516 16 168 3.2 9.7 0.00 0.00 0.00 61 1010.1
20260506033536 17 171 3.2 11.3 0.00 0.00 0.00 61 1010.0
20260506032516 17 165 3.2 17.7 0.00 0.00 0.00 61 1009.9
20260506031536 17 180 4.8 20.9 0.00 0.00 0.00 61 1009.9
20260506030516 17 180 4.8 14.5 0.00 0.00 0.00 62 1009.9
20260506025516 17 187 3.2 12.9 0.00 0.00 0.00 64 1009.9
20260506024516 17 239 3.2 8.0 0.00 0.00 0.00 63 1010.0
20260506023536 17 221 3.2 14.5 0.00 0.00 0.00 62 1010.0
20260506022516 17 223 1.6 4.8 0.00 0.00 0.00 63 1010.0
20260506021516 17 227 3.2 6.4 0.00 0.00 0.00 63 1010.0
20260506020516 17 221 1.6 4.8 0.00 0.00 0.00 62 1010.0
20260506015516 17 188 0.0 3.2 0.00 0.00 0.00 62 1010.0
20260506014516 17 224 1.6 4.8 0.00 0.00 0.00 62 1009.9
20260506013516 17 236 0.0 1.6 0.00 0.00 0.00 62 1009.8
20260506012516 17 269 1.6 4.8 0.00 0.00 0.00 64 1009.8
20260506011516 17 260 0.0 3.2 0.00 0.00 0.00 63 1009.8
20260506010557 17 274 0.0 4.8 0.00 0.00 0.00 64 1009.6
20260506005516 17 238 0.0 1.6 0.00 0.00 0.00 63 1009.7
20260506004517 17 159 1.6 3.2 0.00 0.00 0.00 64 1009.5
20260506003517 17 181 1.6 9.7 0.00 0.00 0.00 62 1009.5
20260506002517 17 203 0.0 4.8 0.00 0.00 0.00 63 1009.4
20260506001517 17 188 1.6 6.4 0.00 0.00 0.00 64 1009.3